Regional Weather Roundup
Issued by NWS Raleigh/Durham, NC

Home | Current Version | Previous Version | Text Only | Print | Product List | Glossary On
Versions: 1 2 3 4 5 6 7 8 9 10 11 12 13 14 15 16 17 18 19 20 21 22 23 24 25 26 27 28 29 30 31 32 33 34 35 36 37 38 39 40 41 42 43 44 45 46 47 48 49 50
000
ASUS42 KRAH 222310
RWRRAH
NORTH CAROLINA WEATHER ROUNDUP
NATIONAL WEATHER SERVICE RALEIGH NC
700 PM EDT TUE JUL 22 2014

NOTE: "FAIR" INDICATES FEW OR NO CLOUDS BELOW 12,000 FEET WITH NO
SIGNIFICANT WEATHER AND/OR OBSTRUCTIONS TO VISIBILITY.

NCZ001-053-055-056-065-067-230000-
WESTERN NORTH CAROLINA

CITY           SKY/WX    TMP DP  RH WIND       PRES   REMARKS
ASHEVILLE      CLOUDY    76  67  73 SE3       30.17R
JEFFERSON      MOSUNNY   73  64  75 CALM      30.23S
MORGANTON      MOSUNNY   80  71  72 SE3       30.17R
HICKORY        CLOUDY    81  70  69 CALM      30.12S
RUTHERFORDTON  PTSUNNY   77  71  83 S7        30.13R
MOUNT AIRY     MOSUNNY   83  71  66 S3        30.12S
BOONE          MOSUNNY   71  65  79 E5        30.23S
$$

NCZ021-022-025-041-071-084-088-230000-
CENTRAL NORTH CAROLINA

CITY           SKY/WX    TMP DP  RH WIND       PRES   REMARKS
CHARLOTTE      PTSUNNY   78  69  73 SE7       30.11S
GREENSBORO     PTSUNNY   79  71  76 SE9       30.11F
WINSTON-SALEM  MOSUNNY   82  69  64 SE6       30.13S
RALEIGH-DURHAM PTSUNNY   82  71  69 E6        30.09F
FORT BRAGG     MOSUNNY   86  72  63 N3        30.06S
FAYETTEVILLE   MOSUNNY   87  71  58 S5        30.06S
BURLINGTON     PTSUNNY   83  69  62 S3        30.10F
LAURINBURG     PTSUNNY   86  71  60 S3        30.07F
$$

NCZ011-015-027-028-043-044-047-080-103-230000-
NORTHEASTERN NORTH CAROLINA

CITY           SKY/WX    TMP DP  RH WIND       PRES   REMARKS
ROCKY MT-WILSO MOSUNNY   80  71  74 E6        30.09F
GREENVILLE     MOSUNNY   79  75  89 E3        30.11S
WASHINGTON     PTSUNNY   78  74  87 CALM      30.10S
ELIZABETH CITY PTSUNNY   79  74  84 SE3       30.10S
MANTEO         NOT AVBL
CAPE HATTERAS  MOSUNNY   80  74  81 SW8       30.12R
$$

NCZ078-087-090-091-093-098-101-230000-
SOUTHEASTERN NORTH CAROLINA

CITY           SKY/WX    TMP DP  RH WIND       PRES   REMARKS
LUMBERTON      PTSUNNY   85  73  67 CALM      30.06S
GOLDSBORO      LGT RAIN  78  77  98 CALM      30.07F
KINSTON        MOSUNNY   79  75  89 NE5       30.09S
KENANSVILLE    CLOUDY    82  73  74 SE3       30.08S
NEW BERN       PTSUNNY   81  73  76 S8        30.11R
CHERRY POINT   RAIN      77  74  90 S3        30.10S FOG
BEAUFORT       RAIN      79  75  87 S9        30.09F FOG
JACKSONVILLE   CLOUDY    79  76  90 S6        30.08S
WILMINGTON     CLOUDY    80  75  84 CALM      30.07F
$$




USA.gov is the U.S. government's official web portal to all federal, state and local government web resources and services.